Regional Weather Roundup
Issued by NWS

Home | Current Version | Previous Version | Text Only | Print | Product List | Glossary On
Versions: 1 2 3 4 5 6 7 8 9 10 11 12 13 14 15 16 17 18 19 20 21 22 23 24 25 26 27 28 29 30 31 32 33 34 35 36 37 38 39 40 41 42 43 44 45 46 47 48 49 50
087
ASUS44 KLUB 202310
RWRTX
WEST TEXAS WEATHER ROUNDUP
NATIONAL WEATHER SERVICE LUBBOCK TX
500 PM CST MON FEB 20 2017

NOTE: "FAIR" INDICATES FEW OR NO CLOUDS BELOW 12,000 FEET WITH NO
SIGNIFICANT WEATHER AND/OR OBSTRUCTIONS TO VISIBILITY.

TXZ004-006>008-010-012-014-016-OKZ002-210000-
TEXAS PANHANDLE/OKLAHOMA PANHANDLE

CITY           SKY/WX    TMP DP  RH WIND       PRES   REMARKS
AMARILLO       SUNNY     67   8  10 N18G28    30.00R
BORGER         SUNNY     70   6   8 N18G24    29.98R
CANADIAN       SUNNY     70   8   8 N15G23    29.93R
DALHART        SUNNY     67  10  11 N14       30.04R
DUMAS          SUNNY     65   9  11 N20G28    30.02R
GUYMON         SUNNY     69   2   7 N25G35    29.96R
HEREFORD       SUNNY     68  18  14 N22G29    30.03S
PAMPA          SUNNY     68  10  10 N25       29.98R
PERRYTON       SUNNY     70  13  11 N24G30    29.94R
$$

TXZ026-029-035-045-048-210000-
SOUTHERN PANHANDLE/SOUTH PLAINS/ROLLING PLAINS

CITY           SKY/WX    TMP DP  RH WIND       PRES   REMARKS
CHILDRESS      MOSUNNY   72  30  21 N23G29    29.91R
SEMINOLE       MOSUNNY   69  24  18 NW17G25   30.05R
LUBBOCK        MOSUNNY   69   7   9 N21G31    30.00R
PLAINVIEW      SUNNY     66  12  12 N22       29.99R
SNYDER         SUNNY     70  34  26 N25G32    29.94R
$$

TXZ052-054-060>062-072-078-127-140-154-169-210000-
PERMIAN BASIN/CONCHO VALLEY/BIG COUNTRY/EDWARDS PLATEAU

CITY           SKY/WX    TMP DP  RH WIND       PRES   REMARKS
ABILENE        MOSUNNY   71  35  26 W12G20    29.89S
BIG SPRING     SUNNY     70  21  15 NW25G31   30.00R
BROWNWOOD      PTSUNNY   72  37  28 SW10G16   29.90S
JUNCTION       SUNNY     72  37  28 W12       29.94S
MIDLAND        SUNNY     71  18  13 N22G35    30.02R
ODESSA         SUNNY     71  19  14 N18G31    30.03R
SAN ANGELO     MOSUNNY   73  36  25 W21G31    29.91S
SONORA         MOSUNNY   72  34  25 W16G23    30.00S
SWEETWATER     SUNNY     71  30  22 NW20G25   29.95R
WINK           SUNNY     73  20  13 NW17G26   30.03R
$$

TXZ055-058-074-075-080-082-210000-
FAR WEST/SOUTHWEST MOUNTAINS/TRANS PECOS

CITY           SKY/WX    TMP DP  RH WIND       PRES   REMARKS
ALPINE         SUNNY     65  25  22 NW16      30.18R
DRYDEN           N/A     76  29  17 NW14G29   30.00R
EL PASO        SUNNY     67  21  17 NW16      30.16S
FORT STOCKTON  MOSUNNY   71  28  20 NW18G26   30.06R
GUADALUPE PASS SUNNY     62  27  26 W21G28    30.19R
MARFA          SUNNY     61  29  29 W21G30    30.17R
PECOS          SUNNY     72  27  18 NW16      30.07R
PRESIDIO       FAIR      71  30  21 W16G25    30.13R
$$

TXZ014-016-019-021>030-083-210000
TEXAS TECH WEST TEXAS MESONET/TEXAS PANHANDLE/NORTHERN SOUTH PLAINS

CITY           SKY/WX    TMP DP  RH WIND       PRES   REMARKS
ABERNATHY 5ENE   N/A     67  11  11 N21       30.01R
AMARILLO 9NNE    N/A     67  11  11 NW18      30.00R
AMARILLO 7SSE    N/A     66  10  11 N18       30.02R
AMHERST 1NE      N/A     66  12  12 N15       30.03S
BOOTLEG 11WNW    N/A     65  12  12 N9        30.07S
CANADIAN 6E      N/A     69  12  11 NW16      29.91R
CAPROCK CYN SP   N/A     69  13  12 NW13      29.97R
CHILDRESS 2NNE   N/A     72  31  22 N15       29.90R
CLARENDON 2WSW   N/A     69  11  11 N18       29.96R
CLAUDE 12SW      N/A     67  14  13 NW14      29.99S
DIMMITT 2NE      N/A     65  20  17 NW16      30.02S
FLOYDADA 2NNE    N/A     67   7   9 N18       29.98R
FRIONA 2NE       N/A     66  15  14 N12       30.05S
GOODLETT 3W      N/A     73  33  23 N15       29.88R
HART 3N          N/A     65  16  14 N18       30.02S
HEREFORD 2NW     N/A     66  15  14 N15       30.03S
MCLEAN 1E        N/A     68   6   8 N20       29.94R
MEMPHIS 1NE      N/A     71  17  12 N20       29.92R
MULESHOE 2SSW    N/A     67  11  11 N6        30.05R
OLTON 6S         N/A     66  14  13 N17       30.02R
PALO DURO SP     N/A     67  13  12 N18       30.01S
PAMPA 2E         N/A     66  10  11 NW21      29.97R
PLAINVIEW 1S     N/A     67  13  12 N18       29.99R
SILVERTON 7ESE   N/A     67   8   9 N21       29.98R
TULIA 2ENE       N/A     66  19  16 N17G26    30.00S
TURKEY 2WSW      N/A     70  16  12 N20       29.95R
UMBARGER 3NNE    N/A     65  16  14 N18       30.03R
$$

TXZ033>036-039>041-045>048-210000
TEXAS TECH WEST TEXAS MESONET/SOUTH PLAINS

CITY           SKY/WX    TMP DP  RH WIND       PRES   REMARKS
AIKEN 3WSW       N/A     67  14  13 N21       30.01R
ANDREWS 2NE      N/A     70  19  14 NW18      30.04R
ANTON 6SSW       N/A     67  13  12 N20       30.03R
BROWNFIELD 2S    N/A     67   9  10 N18       30.03R
DENVR CTY 7WNW   N/A     67  20  16 NW14      30.06R
GAIL 2ESE        N/A     70  24  18 N22       29.96R
LAMESA 2SE       N/A     68  14  12 NW22      30.02R
LEVELLAND 4S     N/A     67   9  10 N17       30.04R
LUBBOCK 3WNW     N/A     68   5   8 N15G25    30.02R
MORTON 1ENE      N/A     67  11  11 NW10      30.05S
ODONNELL 1N      N/A     68  14  12 N25       30.00R
PLAINS 3N        N/A     67  20  17 N16       30.05R
RALLS 1SE        N/A     66  16  14 N20       30.00R
REESE CENTER     N/A     67   7   9 N21       30.02R
SEAGRAVES 1SW    N/A     68  20  16 N23       30.04R
SEMINOLE 2NNE    N/A     68  21  16 NW17G26   30.04R
SLATON 2NE       N/A     68  15  13 N22G32    30.00R
SNYDER 3E        N/A     70  33  25 NW24G35   29.93R
SUNDOWN 8SW      N/A     67   8  10 N20       30.05R
TAHOKA 3NNE      N/A     68   9  10 N21       30.01R
WOLFFORTH 6SSW   N/A     69   4   8 N28       30.02R
$$

TXZ031-032-036>038-042>044-210000-
TEXAS TECH WEST TEXAS MESONET/ROLLING PLAINS

CITY           SKY/WX    TMP DP  RH WIND       PRES   REMARKS
ASPERMONT 3NE    N/A     72  30  20 N14       29.89R
FLUVANNA 3WNW    N/A     69  27  20 NW22      29.96R
GRAHAM 5SSW      N/A     68  23  18 NW24      29.98R
GUTHRIE 10WSW    N/A     71  31  22 N21       29.90R
HASKELL 1NW      N/A     71  34  25 NW14      29.88R
JAYTON 1SSE      N/A     71  31  22 N15       29.92R
KNOX CITY 3NW    N/A     72  32  22 N14       29.89R
LK A HENRY 1NW   N/A     71  28  19 N18       29.94R
NORTHFIELD 1S    N/A     72  24  16 N21       29.92R
ODELL 4ENE       N/A     73  37  26 E1        29.89R
PADUCAH 10SW     N/A     71  32  24 N20       29.91R
POST 1NE         N/A     70  23  17 N21       29.97R
RRING SPRGS 3N   N/A     69  27  21 N20       29.95R
SEYMOUR 3NW      N/A     72  39  30 S1        29.88R
SPUR 1W          N/A     70  28  20 N22G32    29.93R
WEINERT 2NNE     N/A     72  39  30 N8        29.89R
WHITE RVR 6NE    N/A     69  20  15 N28       29.96R
$$

TXZ052-054-060>062-072-078-127-140-154-169-210000-
TEXAS TECH WEST TEXAS MESONET/PERMIAN BASIN/
CONCHO VALLEY/BIG COUNTRY/EDWARDS PLATEAU

CITY           SKY/WX    TMP DP  RH WIND       PRES   REMARKS
COYANOSA 2N      N/A     73  26  17 NW15      30.05R
JUNCTION 1SSW    N/A     72  36  27 W13       29.95S
MERTZON 3NNE     N/A     71  34  25 W15       29.95R
SAN ANGELO 7NW   N/A     72  32  22 W15       29.92R
STRLNG CT 4WSW   N/A     71  33  24 NW14      29.95R
ST LAWRNCE 5SW   N/A     70  22  16 NW24      29.99R
SWEETWATR 11SW   N/A     69  35  28 NW16      29.94R
WALL 1E          N/A     72  38  28 W21       29.92S
$$

TXZ055-058-074-075-080-082-210000-
TEXAS TECH WEST TEXAS MESONET/FAR WEST/SOUTHWEST MOUNTAINS/TRANS PECOS

CITY           SKY/WX    TMP DP  RH WIND       PRES   REMARKS
PRSMN GAP BBNP   N/A     72  28  19 W12       30.05S
GUADLPE MTN NP   N/A     58  23  26 W6        30.19R
$$




USA.gov is the U.S. government's official web portal to all federal, state and local government web resources and services.